星链-3360 (STARLINK-3360 )

导读 | 豆包AI

STARLINK-3360是美国太空探索技术公司SpaceX星链卫星互联网项目中的一颗卫星,于2022年1月19日发射升空,属于星链星座组网批次卫星,星链项目旨在为全球提供高速低延迟的宽带互联网服务,该卫星进入近地轨道参与星座运行,支撑全球网络覆盖。

Basic Information
目录编号:
51149
目录名称:
STARLINK-3360
国际标识:
2022-005AX
轨道中心:
EARTH
卫星名称:
星链-3360
卫星全名:
星链-3360 (STARLINK-3360 )
卫星状态:
在轨 (已飞行1563 天)
发射日期:
2022-01-19 UTC
国别 :
美国 (US)
星等 :
--
Orbit Information
数据来源 国际轨道数据 AOE轨道数据
星历时间 2026-04-30T14:12:30+0800
20小时前
查看轨道信息
2026-04-27T11:00:00+0800
4天前
查看轨道信息
半长轴 6917.886km 6917.89km
偏心率 0.0001504 0.0001334
轨道倾角 53.218° 53.217°
近地点辐角 80.058° 70.469°
升交点赤经 77.435° 91.504°
平近点角 280.059° 178.822°
近地点 538.708km 538.83km
远地点 540.79km 540.676km
周期 95.438分钟 95.438分钟
每日圈数 15.088382 15.088369
Detailed Information
固有亮度:
5
最大亮度:
2.5
卫星平台:
Starlink v1.5
覆盖范围:
全球
运营商:
太空探索技术公司
运营商所在国:
美国
制造商(研发单位):
太空探索技术公司
制造商所在国:
美国
使用方式:
暂无
Satellite Introduction
星链(Starlink)计划是由太空探索技术公司(SpaceX)提出的一个巨型低轨卫星互联网星座项目,计划在2019年至2024年间在太空搭建由约1.2万颗卫星组成的“星链”网络,其中1584颗将部署在地球上空550千米处的近地轨道,并从2020年开始工作。该卫星仍在工作。
2D Orbit Map
3D Orbit Map
Orbit Altitude Analysis Chart
Orbit Inclination Analysis Chart
Orbit Comprehensive Analysis Chart
View Comprehensive Chart